Orbital Elements at Epoch 2459200.5 (2020-Dec-17.0) TDB
Reference: JPL 16 (heliocentric ecliptic J2000)
Element | Value | Uncertainty (1-sigma) | Units |
e | .1314641306426499 | 3.4058e-08 | |
a | 2.290104474233372 | 9.2328e-09 | au |
q | 1.989037880447439 | 8.0414e-08 | au |
i | 5.60479202582784 | 5.8199e-06 | deg |
node | 163.4159697991183 | 3.8791e-05 | deg |
peri | 271.8572317914433 | 4.5095e-05 | deg |
M | 56.53095584593589 | 2.3459e-05 | deg |
tp | 2459001.723427546670 (2020-Jun-01.22342755) | 8.2101e-05 | TDB |
period | 1265.847446100512 3.47 | 7.6551e-06 2.096e-08 | d yr |
n | .2843944593078676 | 1.7199e-09 | deg/d |
Q | 2.591171068019305 | 1.0447e-08 | au |
|
| | Orbit Determination Parameters
Additional Information
|